Regional Weather Roundup
Issued by NWS State College, PA

Home | Current Version | Previous Version | Text Only | Print | Product List | Glossary On
Versions: 1 2 3 4 5 6 7 8 9 10 11 12 13 14 15 16 17 18 19 20 21 22 23 24 25 26 27 28 29 30 31 32 33 34 35 36 37 38 39 40 41 42 43 44 45 46 47 48 49 50
000
ASUS41 KCTP 261703
RWRCTP

REGIONAL WEATHER ROUNDUP
NATIONAL WEATHER SERVICE STATE COLLEGE PA
100 PM EDT THU MAY 26 2016

Note: "fair" indicates few or no clouds below 12,000 feet with no
significant weather and/or obstructions to visibility.

* = STATION THAT DOES NOT REPORT PRECIPITATION /E.G. RAIN...SNOW...ETC/
    THUNDER OR FOG.

PAZ002>004-007>009-013>016-020>023-029>032-261800-
WESTERN PENNSYLVANIA

CITY           SKY/WX    TMP DP  RH WIND       PRES   REMARKS
ERIE           MOSUNNY   84  63  49 S17G25    30.00F
MEADVILLE      PTSUNNY   75  62  64 S10G17    30.06S
FRANKLIN*      PTSUNNY   77  63  61 SW12G18   30.10S
NEW CASTLE     CLOUDY    79  64  60 SW8       30.07S
BEAVER COUNTY  PTSUNNY   77  63  61 SW6G23    30.08S
BUTLER*        PTSUNNY   79  63  57 SW8       30.12R
PITTSBURGH INT CLOUDY    79  60  52 S10       30.08F
PITTSBURGH     MOSUNNY   79  62  56 SW10G17   30.08F
INDIANA*       MOSUNNY   77  63  61 SW12G20   30.13F
LATROBE        PTSUNNY   77  64  65 W14       30.11F
WASHINGTON CO* PTSUNNY   79  63  57 SW8       30.10S
$$

PAZ004>006-010>012-017>019-024>028-033>037-041-042-045-046-049>053-261800-
CENTRAL PENNSYLVANIA

CITY           SKY/WX    TMP DP  RH WIND       PRES   REMARKS
BRADFORD       CLOUDY    77  54  44 S9G22     30.10F
DUBOIS         PTSUNNY   76  59  55 SW15G24   30.09F
CLEARFIELD     CLOUDY    80  58  46 S12       30.09F
JOHNSTOWN      MOSUNNY   76  56  49 SW8       30.14F
ALTOONA        MOSUNNY   81  55  40 S13       30.11F
STATE COLLEGE  MOSUNNY   81  57  44 SW10      30.09F
WILLIAMSPORT   SUNNY     84  51  31 S7        30.05F
SELINSGROVE    SUNNY     83  57  41 SE5       30.07F
FT INDIANTOWN  NOT AVBL
CAPITAL CITY   SUNNY     85  58  39 N5        30.06F
HARRISBURG     MOSUNNY   82  59  45 CALM      30.06F
YORK           SUNNY     86  59  39 SW9       30.07F
$$

PAZ038>040-043-044-047-048-054-055-060>062-067>071-261800-
EASTERN PENNSYLVANIA

CITY           SKY/WX    TMP DP  RH WIND       PRES   REMARKS
SCRANTON       MOSUNNY   84  53  34 VRB6      30.08F
MOUNT POCONO   MOSUNNY   74  48  39 SW15      30.13F
ALLENTOWN      SUNNY     89  52  28 S10G16    30.07F
QUAKERTOWN*    SUNNY     86  52  30 S9        30.10F
READING        SUNNY     87  55  33 SW10G18   30.06F
LANCASTER      SUNNY     86  58  38 S10G17    30.07F
COATESVILLE    SUNNY     84  52  32 S9G15     30.12S
POTTSTOWN      MOSUNNY   86  51  29 S9        30.10F
BLUE BELL      SUNNY     82  54  36 S7        30.08F
DOYLESTOWN     SUNNY     85  46  25 S7        30.08F
WILLOW GROVE   NOT AVBL
NORTH PHILA    SUNNY     87  55  33 S8        30.09F
PHILADELPHIA   PTSUNNY   86  54  33 SW9       30.08F
$$




USA.gov is the U.S. government's official web portal to all federal, state and local government web resources and services.